Location: C�an Torras
(41.5052°N, 1.9280°E)
Time: 20:38:44
(UTC+00:00)

CZ-4 R/B - Pass Details

Date: 20 January 2021
Orbit: 531 x 599 km, 97.7° (Epoch: 03 March)

Event Time Altitude Azimuth Distance (km) Brightness Sun altitude
Rises 19:24:56 0° 201° (SSW) 2,806 5.2 -28.1°
Reaches altitude 10° 19:27:35 10° 218° (SW) 1,901 4.5 -28.6°
Maximum altitude 19:30:37 20° 266° (W) 1,366 4.0 -29.2°
Drops below altitude 10° 19:33:39 10° 314° (NW) 1,884 4.5 -29.7°
Sets 19:36:16 0° 332° (NNW) 2,773 5.2 -30.2°
